Regional Weather Roundup
Issued by NWS Grand Forks, ND

Home | Current Version | Previous Version | Text Only | Print | Product List | Glossary Off
Versions: 1 2 3 4 5 6 7 8 9 10 11 12 13 14 15 16 17 18 19 20 21 22 23 24 25 26 27 28 29 30 31 32 33 34 35 36 37 38 39 40 41 42 43 44 45 46 47 48 49 50

000
ASUS43 KFGF 031910
RWRFGF
PRAIRIE TO PINES  WEATHER ROUNDUP
NATIONAL WEATHER SERVICE EASTERN NORTH DAKOTA/GRAND FORKS ND
200 PM CDT TUE MAY 03 2016

 **SATELLITE DATA USED TO AUGMENT SKY COVER AT AUTOMATED STATIONS**
 *****  WEATHER ACROSS EASTERN NORTH DAKOTA  *****

CITY           SKY/WX    TMP DP  RH WIND       PRES   REMARKS
GRAND FORKS    MOSUNNY   67  31  26 N24G38    29.88S
GRAND FRKS AFB SUNNY     67  28  23 N25G32    29.90S
DEVILS LAKE    SUNNY     66  30  26 NW22G29   29.95F
FARGO          SUNNY     72  28  19 N26G37    29.84S
WAHPETON ARPT  CLEAR     72  28  20 N28G33    29.81S
$$

 ***** WEATHER ACROSS CENTRAL AND WESTERN NORTH DAKOTA  *****

CITY           SKY/WX    TMP DP  RH WIND       PRES   REMARKS
BISMARCK       SUNNY     77  39  25 N20G28    29.97F
MINOT          SUNNY     77  31  18 NW20G28   30.01S
JAMESTOWN      SUNNY     70  29  21 N25G40    29.91F
MINOT AFB      SUNNY     72  33  24 N14G31    30.00S
GARRISON         N/A     74  34  23 N21G26    30.00
WILLISTON      SUNNY     80  38  22 N15G23    30.05F
DICKINSON      SUNNY     74  35  24 N14G22    30.03F
HETTINGER      SUNNY     74  33  22 N15       30.06F
$$

 *****  OTHER AIRPORT OBSERVATIONS IN OUR AREA  *****

CITY           SKY/WX    TMP DP  RH WIND       PRES   REMARKS
WALHALLA       FAIR      63  28  27 N26G38    29.96R
GRAFTON AIRPOR FAIR      64  32  29 N26G37    29.92S
VALLEY CITY AR FAIR      68  27  21 N23G32    29.91S
CANDO            N/A     68  27  21 N16G30    29.99F
CAVALIER APRT  FAIR      63  30  29 NW28G37   29.93R
GWINNER        FAIR      73  36  25 NW21G31   29.86S
ROLLA          FAIR      64  25  22 N25       29.99F
 ***** THE ABOVE OBSERVATIONS ARE NON NWS ARE NOT QUALITY
       CONTROLLED AND MAY MIS-REPORT RAIN FOR SNOW...
$$

  *****  WEATHER ACROSS NORTHERN MINNESOTA  *****

CITY           SKY/WX    TMP DP  RH WIND       PRES   REMARKS
FLAG ISLAND    MOSUNNY   55  30  38 N18       29.83R
WARROAD        SUNNY     63  32  31 N18G24    29.84S
ROSEAU         SUNNY     64  23  20 N17G29    29.85S
HALLOCK        SUNNY     64  23  20 N28G35    29.88S
THF RVR FALLS  SUNNY     63  27  25 N25       29.87R
BAUDETTE       SUNNY     61  28  28 N21G31    29.81R
WASKISH        SUNNY     63  30  29 N18G25    29.80R
CROOKSTON      SUNNY     66  28  24 N29G37    29.87S
STEPHEN NDAWN    N/A     64  27  24 N22         N/A
GREENBUSH NDAW   N/A     63  30  29 N21         N/A
$$
  *****  WEATHER ACROSS CENTRAL AND WEST MINNESOTA  *****

CITY           SKY/WX    TMP DP  RH WIND       PRES   REMARKS
FOSSTON        SUNNY     66  19  16 NW26G33   29.83S
BEMIDJI        SUNNY     64  28  25 N20G29    29.78R
PARK RAPIDS    SUNNY     68  29  23 N18G30    29.75F
ELBOW LAKE     FAIR      70  40  33 W24G32    29.78F
WADENA         SUNNY     70  36  28 NW23G29   29.75F
DETROIT LAKES  SUNNY     68  28  22 N21G30    29.81S
MOORHEAD       SUNNY     72  27  18 N26G38    29.84S
FERGUS FALLS   SUNNY     72  36  26 N23G36    29.76F
MORRIS MN      SUNNY     73  41  31 NW18      29.79F
STAPLES        PTSUNNY   70  37  30 W17G28    29.74F
$$
  *****  WEATHER ELSEWHERE ACROSS MINNESOTA  *****

CITY           SKY/WX    TMP DP  RH WIND       PRES   REMARKS
DULUTH         PTSUNNY   66  36  32 NW15G26   29.66F
INTRNTL FALLS  MOSUNNY   62  31  31 N18G26    29.75R
ELY            PTSUNNY   59  34  38 NW8       29.67F
CLOQUET        MOSUNNY   66  32  28 W21G26    29.68F
WHEATON        MOSUNNY   75  43  31 NW18G31   29.81F
BRAINERD       PTSUNNY   68  39  34 W15G23    29.72F
HIBBING        MOSUNNY   63  31  30 NW24G31   29.69F
ALEXANDRIA     MOSUNNY   71  40  32 W21G29    29.79F
SAINT CLOUD    CLOUDY    68  39  34 W16G28    29.75F
MINNEAPOLIS    PTSUNNY   69  39  33 W16G31    29.78F
$$

  *****  WEATHER ACROSS SOUTH DAKOTA  *****

CITY           SKY/WX    TMP DP  RH WIND       PRES   REMARKS
SIOUX FALLS    PTSUNNY   66  45  46 NW17G26   29.93F
BROOKINGS      SUNNY     66  40  38 NW18G26   29.89F
WATERTOWN      SUNNY     70  42  36 W17G23    29.88F
HURON          SUNNY     71  43  36 NW17G26   29.92F
SISSETON         N/A     76  36  23 NW29G40   29.80F
ABERDEEN       SUNNY     77  42  28 NW22G29   29.88F
MITCHELL       MOSUNNY   68  47  46 NW17G26   29.96F
PIERRE         SUNNY     70  42  36 NW16      29.99F
MOBRIDGE       SUNNY     77  39  25 NW20G25   29.94F
RAPID CITY     SUNNY     69  37  30 N20G25    30.09F
$$

  *****  SOME WEATHER IN NEARBY STATES *****

CITY           SKY/WX    TMP DP  RH WIND       PRES   REMARKS
GLASGOW MT     SUNNY     77  39  25 MISG      30.08F
GREAT FALLS MT SUNNY     74  33  22 W3        30.11F
CHEYENNE WY    SUNNY     58  32  37 NW18G29   30.24S
SCOTTSBLUFF NE SUNNY     70  35  27 N18       30.13F
OMAHA NE       MOSUNNY   69  43  38 NW10      30.00F
DES MOINES IA  PTSUNNY   69  37  30 W12G23    29.96F
DAVENPORT IA   PTSUNNY   67  38  34 W16G24    29.92F
CHICAGO IL     PTSUNNY   64  38  38 W10       29.86F
EAU CLAIRE WI  MOSUNNY   68  34  28 W17G28    29.74F
LA CROSSE WI   PTSUNNY   72  38  29 W10G23    29.80F
$$

  *****  SOME NATIONAL WEATHER *****

CITY           SKY/WX    TMP DP  RH WIND       PRES   REMARKS
LA GUARDIA NY  DRIZZLE   54  52  94 NE13      29.82F FOG
RALEIGH NC     PTSUNNY   74  64  71 W6        29.79S
ATLANTA GA     PTSUNNY   75  60  59 W13       29.88F
NEW ORLEANS LA PTSUNNY   77  68  73 N7        29.93F
OKLAHOMA CITY  PTSUNNY   68  38  33 VRB3      30.08F
ALBUQUERQUE NM MOSUNNY   67  30  25 W8        30.20F
SALT LAKE CITY MOSUNNY   68  35  29 N12       30.23F
LOS ANGELES CA MOSUNNY   67  54  63 W8        29.98F
BOISE ID       SUNNY     76  29  17 SE8G23    30.12F
SEATTLE WA     PTSUNNY   67  52  58 W6        30.06S
$$

*** WEATHER ACROSS MANITOBA...SASKATCHEWAN AND ONTARIO ***
                ***ONTARIO***

CITY           SKY/WX    TMP DP  RH WIND       PRES   REMARKS
GERALDTON      PTSUNNY   46  43  87 NW12      29.59R
THUNDER BAY    PTSUNNY   63  30  29 NW16G28   29.60R
SIOUX LOOKOUT  PTSUNNY   50  34  53 N13G24    29.79R
TORONTO        PTSUNNY   54  37  54 SE8       29.84F
BIG TROUT LK   CLOUDY    39  34  81 N9G24     29.83R
PICKLE LAKE    CLOUDY    39  34  81 N10G20    29.77S
DRYDEN         PTSUNNY   54  34  47 N17G28    29.78R
KENORA         PTSUNNY   59  32  36 N17G25    29.83R
$$
                *** MANITOBA***

CITY           SKY/WX    TMP DP  RH WIND       PRES   REMARKS
BRANDON        SUNNY     66  25  20 N22G29    30.01S
DAUPHIN        SUNNY     59  30  33 N17G28    30.06S
ISLAND LAKE    PTSUNNY   41  30  65 NW10G18   30.01S
PILOT MOUND      N/A     63  25  23 N21G30      N/A
THE PAS        MOSUNNY   55  28  35 NE9       30.09F
THOMPSON       SUNNY     54  23  30 N10G17    30.08S
WINNIPEG       MOSUNNY   61  32  33 N25G31    29.95R
LYNN LAKE      SUNNY     52  27  37 N3        30.09F
CHURCHILL      PTSUNNY   27  21  80 N14       30.18R WCI  15
GILLAM         MOSUNNY   36  25  64 N14       30.10R
$$
                ***SASKATCHEWAN***

CITY           SKY/WX    TMP DP  RH WIND       PRES   REMARKS
ESTEVAN        MOSUNNY   79  39  24 N10G23    30.04S
KINDERSLEY     PTSUNNY   82  37  20 S10G23    30.02F
LLOYDMINSTER   MOSUNNY   81  37  21 SW12G22   29.98F
PRINCE ALBERT  CLOUDY    70  34  26 SE9       30.04F
REGINA         MOSUNNY   77  37  24 VRB2      30.04F
YORKTON        SUNNY     66  28  24 N9G17     30.06F
N. BATTLEFORD  SUNNY     82  39  21 VRB8      30.01F
LA RONGE       PTSUNNY   64  30  27 NE9G17    30.05F
SASKATOON      MOSUNNY   82  39  21 W9        30.02F
SWIFT CURRENT  SUNNY     77  36  22 VRB3      30.06F
$$
NOTE: THESE ARE AUTOMATED STATIONS WITH LIMITED QUALITY CONTROL
      "FAIR" INDICATES FEW OR NO CLOUDS BELOW 12,000 FEET WITH NO
      SIGNIFICANT WEATHER AND/OR OBSTRUCTIONS TO VISIBILITY.
      SKY/WX - SKY CONDITION AND SIGNIFICANT WEATHER.
      TMP - AIR TEMPERATURE.    DP   - DEWPOINT TEMPERATURE.
      RH  - RELATIVE HUMIDITY.  PRES - PRESSURE.
      HX  - HEAT INDEX.         WCI  - WIND CHILL INDEX.
$




USA.gov is the U.S. government's official web portal to all federal, state and local government web resources and services.